Regional Weather Roundup
Issued by NWS Northern Indiana

Home | Current Version | Previous Version | Text Only | Print | Product List | Glossary Off
Versions: 1 2 3 4 5 6 7 8 9 10 11 12 13 14 15 16 17 18 19 20 21 22 23 24 25 26 27 28 29 30 31 32 33 34 35 36 37 38 39 40 41 42 43 44 45 46 47 48 49 50

000
ASUS43 KIWX 190000
RWRIWX

KIWX WEATHER ROUNDUP
NATIONAL WEATHER SERVICE NORTHERN INDIANA
700 PM EST THU DEC 18 2014

NOTE: "FAIR" INDICATES FEW OR NO CLOUDS BELOW 12,000 FEET WITH NO
SIGNIFICANT WEATHER AND/OR OBSTRUCTIONS TO VISIBILITY.

* THESE STATIONS ARE NOT UNDER NWS QUALITY CONTROL. THEY ALSO MAY NOT
  REPORT WEATHER SUCH AS PRECIPITATION OR FOG.

INZ001>027-190100-
NORTHERN INDIANA

CITY           SKY/WX    TMP DP  RH WIND       PRES   REMARKS
GARY*          CLOUDY    28  18  64 CALM      30.25S
KNOX*          CLOUDY    27  19  71 CALM      30.23S
6HR MIN TEMP:   9; 6HR MAX TEMP:  81;

SOUTH BEND     CLOUDY    28  21  75 W6        30.23S WCI  22
6HR MIN TEMP:  27; 6HR MAX TEMP:  28;

GOSHEN         CLOUDY    27  22  81 W7        30.22R WCI  19
6HR MIN TEMP:  27; 6HR MAX TEMP:  28;

MONTICELLO*    CLOUDY    26  21  81 NW3       30.24R
6HR MIN TEMP:  26; 6HR MAX TEMP:  27;

ANGOLA*        CLOUDY    27  25  93 W6        30.19R WCI  20
FORT WAYNE     CLOUDY    27  21  78 W6        30.23R WCI  20
6HR MIN TEMP:  27; 6HR MAX TEMP:  28; 6HR PCP: TRACE;


$$
INZ028>050-190100-
CENTRAL INDIANA

CITY           SKY/WX    TMP DP  RH WIND       PRES   REMARKS
LAFAYETTE      CLOUDY    25  21  85 CALM      30.25S
6HR MIN TEMP:  25; 6HR MAX TEMP:  27;

KOKOMO*        MOCLDY    27  19  74 NW6       30.24R WCI  20
6HR MIN TEMP:  27; 6HR MAX TEMP:  28;

MUNCIE*        CLOUDY    27  21  78 W5        30.22R WCI  22
6HR MIN TEMP:  27; 6HR MAX TEMP:  28;

INDIANAPOLIS   CLOUDY    26  21  81 W5        30.22S WCI  20
6HR MIN TEMP:  26; 6HR MAX TEMP:  27; 6HR PCP: TRACE;


$$
MIZ043>046-050>051-056>058-064>065-071>073-077>080-190100-
SOUTHWEST LOWER MICHIGAN

CITY           SKY/WX    TMP DP  RH WIND       PRES   REMARKS
BATTLE CREEK   CLOUDY    29  25  85 W8        30.19R WCI  21
6HR MIN TEMP:  29; 6HR MAX TEMP:  31;

BENTON HARBOR  CLOUDY    29  24  82 W10       30.22S WCI  20
6HR MIN TEMP:  28; 6HR MAX TEMP:  29;

COLDWATER*     CLOUDY    28  26  91 W7        30.19R WCI  21
6HR MIN TEMP:  28; 6HR MAX TEMP:  29;

HILLSDALE*     CLOUDY    29  28  96 W6        30.17R FOG     WCI  23
6HR MIN TEMP:  29; 6HR MAX TEMP:  31;

HOLLAND        LGT SNOW  33  29  85 NW3       30.20R FOG
6HR MIN TEMP:  33; 6HR MAX TEMP:  34; 6HR PCP: TRACE;

GRAND RAPIDS   FLURRIES  31  26  82 N5        30.18R WCI  26
6HR MIN TEMP:  31; 6HR MAX TEMP:  32; 6HR PCP: TRACE;

KALAMAZOO      CLOUDY    29  23  78 W9        30.20R WCI  20
6HR MIN TEMP:  29; 6HR MAX TEMP:  31;

STURGIS*       CLOUDY    27  23  86 W5        30.20R WCI  21
THREE RIVERS*  CLOUDY    28  24  82 W8        30.21S WCI  20

$$
OHZ001>008-015>018-024>025-190100-
NORTHWEST OHIO

CITY           SKY/WX    TMP DP  RH WIND       PRES   REMARKS
DEFIANCE       CLOUDY    29  24  82 VRB5      30.22R WCI  24
6HR MIN TEMP:  29; 6HR MAX TEMP:  30;

FINDLAY        CLOUDY    29  25  85 W9        30.19S WCI  20
6HR MIN TEMP:  29; 6HR MAX TEMP:  31;

TOLEDO EXPRESS CLOUDY    30  24  78 W9        30.19R WCI  22
6HR MIN TEMP:  30; 6HR MAX TEMP:  31;

TOLEDO METCALF CLOUDY    31  25  78 W9        30.20R WCI  23
6HR MIN TEMP:  31; 6HR MAX TEMP:  33;

LIMA           CLOUDY    31  23  72 W6        30.20R WCI  25
6HR MIN TEMP:  31; 6HR MAX TEMP:  32;


$$
AND FOR LAKE MICHIGAN COASTAL AND OPEN LAKE BUOY OBSERVATIONS

STATION/POSITION TEMP    WIND        PRES    VSBY  WAVE
                 AIR SEA DIR/SP/G                  HT/PER
                 (F)     (DEG/KT/KT) (MB)    (MI)  (FT/S)
CALUMET HARBOR    27     220/  3/  4 1022.9R
SAINT JOSEPH      31     230/ 11/ 20 1023.4R

$$
&&


USA.gov is the U.S. government's official web portal to all federal, state and local government web resources and services.